sat.trackr.live / text

‹ back to catalog

STARLINK-36922

NORAD 68123 · 2026-044Y

PAYLOAD ACTIVE UNKNOWN

§ Identity

Operator
Country
US
Launch date
2026-03-08
Launch site
AFWTR
Launch vehicle
Mass (kg)
RCS (m²)

Purposes: comms

External: N2YO · Heavens-Above · Gunter

§ Orbital elements

Epoch: 2026-09-19T15:52:44.258304Z

Period
93.91 min
Inclination
97.2839°
Eccentricity
0.0001928
Mean motion
15.33455388 rev/d
Perigee alt
464.2 km
Apogee alt
466.8 km
Semi-major
6,843.6 km
B*
7.5737e-4
RAAN
221.6918°
Arg perigee
97.6149°
Mean anomaly
262.5313°
Rev number
3,131

§ Raw data

STARLINK-369221 68123U 26044Y   26262.66162336  .00024464  00000+0  75737-3 0  99982 68123  97.2839 221.6918 0001928  97.6149 262.5313 15.33455388 31310

JSON: /api/v1/satellites/68123 · /tle

For live sub-satellite position, see the globe view (requires WebGL).

§ Visibility from observer

Set your observer location to see the next 7 days of passes ≥ 10°. The values pass through the URL so the page stays shareable.

No JS? Fill the form by hand. The geolocation button needs JavaScript.